EB1TK-13 Weather Reports


time (UTC)temp
C
wind
direction
speed
KPH
gust
KPH
rain 1hr
cm
rain 24hr
cm
rain mn
cm
humidity
%
barometer
mb
20260508091215 15 263 22.5 29.0 0.00 0.00 0.00 90 1008.4
20260508090215 14 258 19.3 27.4 0.00 0.00 0.00 91 1008.1
20260508085216 14 268 29.0 32.2 0.00 0.00 0.00 90 1007.9
20260508084231 15 273 17.7 24.1 0.00 0.00 0.00 88 1008.0
20260508083217 15 248 6.4 9.7 0.00 0.00 0.00 86 1007.8
20260508082227 15 235 6.4 8.0 0.00 0.00 0.00 87 1007.6
20260508081215 15 221 0.0 1.6 0.00 0.00 0.00 88 1007.5
20260508080215 15 0.0 0.0 0.00 0.00 0.00 88 1007.3
20260508075215 15 0.0 0.0 0.00 0.00 0.00 89 1007.3
20260508074216 14 221 0.0 1.6 0.00 0.00 0.00 89 1007.2
20260508073216 14 221 0.0 1.6 0.00 0.00 0.00 89 1007.1
20260508072217 14 221 3.2 4.8 0.00 0.00 0.00 88 1007.0
20260508071230 13 0.0 0.0 0.00 0.00 0.00 89 1007.0
20260508070215 13 0.0 0.0 0.00 0.00 0.00 89 1007.1
20260508065215 13 0.0 0.0 0.00 0.00 0.00 88 1007.1
20260508064216 14 0.0 0.0 0.00 0.00 0.00 88 1007.2
20260508063216 13 0.0 0.0 0.00 0.00 0.00 88 1007.1
20260508062216 13 221 3.2 4.8 0.00 0.00 0.00 88 1007.1
20260508061217 13 220 1.6 3.2 0.00 0.00 0.00 89 1007.1
20260508060217 13 220 1.6 3.2 0.00 0.00 0.00 89 1007.1
20260508055220 13 219 4.8 6.4 0.00 0.00 0.00 90 1007.2
20260508054215 13 219 6.4 6.4 0.00 0.00 0.00 90 1007.3
20260508053216 13 219 6.4 6.4 0.00 0.00 0.00 91 1007.2
20260508052216 13 221 4.8 6.4 0.00 0.00 0.00 91 1007.0
20260508051227 12 221 4.8 6.4 0.00 0.00 0.00 92 1007.0
20260508050217 12 221 4.8 4.8 0.00 0.00 0.00 91 1006.8
20260508045214 12 224 4.8 4.8 0.00 0.00 0.00 90 1006.9
20260508044226 13 224 4.8 4.8 0.00 0.00 0.00 90 1006.8
20260508043218 12 223 3.2 3.2 0.00 0.00 0.00 91 1006.9
20260508042216 13 223 4.8 6.4 0.00 0.00 0.00 91 1007.0
20260508041216 12 221 4.8 4.8 0.00 0.00 0.00 93 1007.1
20260508040216 12 221 4.8 6.4 0.00 0.00 0.00 94 1007.3
20260508035217 12 221 4.8 6.4 0.00 0.00 0.00 95 1007.3
20260508034215 12 219 4.8 6.4 0.00 0.00 0.00 95 1007.6
20260508033225 12 217 4.8 6.4 0.00 0.00 0.00 95 1007.6
20260508032215 12 217 4.8 6.4 0.00 0.00 0.00 95 1007.8
20260508031216 12 217 3.2 3.2 0.00 0.00 0.00 95 1007.9
20260508030216 12 217 1.6 3.2 0.00 0.00 0.00 95 1008.0
20260508025217 12 217 4.8 6.4 0.00 0.00 0.00 94 1008.1
20260508024217 13 0.0 0.0 0.00 0.00 0.00 95 1008.0
20260508023215 12 0.0 0.0 0.00 0.00 0.00 95 1008.1
20260508022215 12 0.0 0.0 0.00 0.00 0.00 95 1008.1
20260508021215 12 217 0.0 1.6 0.00 0.00 0.00 95 1008.2
20260508020216 13 217 1.6 4.8 0.00 0.00 0.00 95 1008.3
20260508015216 13 217 1.6 3.2 0.00 0.00 0.00 96 1008.2
20260508014217 13 217 1.6 3.2 0.00 0.00 0.00 96 1008.3
20260508013217 13 0.0 0.0 0.00 0.00 0.00 96 1008.3
20260508012215 13 217 4.8 4.8 0.00 0.00 0.00 96 1008.7
20260508011215 13 217 3.2 4.8 0.00 0.00 0.00 96 1008.8
20260508010216 12 217 3.2 4.8 0.00 0.00 0.00 96 1009.0
20260508005217 13 145 6.4 8.0 0.00 0.00 0.00 96 1008.7
20260508004216 13 0.0 0.0 0.00 0.00 0.00 96 1008.7
20260508003217 13 139 3.2 4.8 0.00 0.00 0.00 95 1008.9
20260508002217 13 0.0 0.0 0.00 0.00 0.00 96 1008.9
20260508001215 13 0.0 0.0 0.00 0.00 0.00 95 1009.0
20260508000215 13 0.0 0.0 0.00 0.00 0.00 96 1009.1
20260507235216 13 0.0 0.0 0.00 0.00 0.00 95 1009.1
20260507234216 13 0.0 0.0 0.00 0.00 0.00 95 1009.2
20260507233219 13 139 1.6 3.2 0.00 0.00 0.00 95 1009.4
20260507232217 13 137 3.2 4.8 0.00 0.00 0.00 95 1009.4
20260507231215 13 135 1.6 3.2 0.00 0.00 0.00 95 1009.6
20260507230215 13 0.0 0.0 0.00 0.00 0.00 95 1009.6
20260507225218 13 0.0 0.0 0.00 0.00 0.00 94 1009.6
20260507224218 13 0.0 0.0 0.00 0.00 0.00 95 1009.6
20260507223216 13 0.0 0.0 0.00 0.00 0.00 94 1009.5
20260507222216 13 109 3.2 4.8 0.00 0.00 0.00 94 1009.5
20260507221217 13 108 1.6 3.2 0.00 0.00 0.00 93 1009.6
20260507220215 14 105 0.0 1.6 0.00 0.00 0.00 93 1009.5
20260507215215 14 162 3.2 3.2 0.00 0.00 0.00 93 1009.4
20260507214215 14 0.0 0.0 0.00 0.00 0.00 93 1009.6
20260507213216 14 0.0 0.0 0.00 0.00 0.00 93 1009.8
20260507212216 14 0.0 0.0 0.00 0.00 0.00 93 1010.0
20260507211215 15 162 0.0 1.6 0.00 0.00 0.00 93 1010.0
20260507210215 14 0.0 0.0 0.00 0.00 0.00 92 1009.9
20260507205215 14 162 0.0 1.6 0.00 0.00 0.00 92 1009.9
20260507204215 15 162 1.6 3.2 0.00 0.00 0.00 92 1009.8
20260507203215 15 110 0.0 1.6 0.00 0.00 0.00 92 1009.7
20260507202216 15 113 1.6 3.2 0.00 0.00 0.00 91 1009.6
20260507201216 15 0.0 0.0 0.00 0.00 0.00 91 1009.7
20260507200222 15 0.0 0.0 0.00 0.00 0.00 91 1009.7
20260507195217 15 114 1.6 3.2 0.00 0.00 0.00 91 1009.5
20260507194217 15 129 1.6 3.2 0.00 0.00 0.00 91 1009.5
20260507193215 15 115 8.0 9.7 0.00 0.00 0.00 91 1009.4
20260507192218 15 111 11.3 12.9 0.00 0.00 0.00 90 1009.3
20260507191216 15 114 3.2 6.4 0.00 0.00 0.00 90 1009.2
20260507190216 15 107 9.7 12.9 0.00 0.00 0.00 90 1009.1
20260507185217 15 66 16.1 19.3 0.00 0.00 0.00 90 1008.9
20260507184217 15 80 14.5 16.1 0.00 0.00 0.00 90 1008.8
20260507183215 15 68 6.4 9.7 0.00 0.00 0.00 90 1008.8
20260507182215 15 70 6.4 12.9 0.00 0.00 0.00 90 1008.9
20260507181215 15 50 12.9 16.1 0.00 0.00 0.00 89 1009.0
20260507180216 15 73 12.9 19.3 0.00 0.00 0.00 89 1009.1
20260507175216 15 74 17.7 22.5 0.00 0.00 0.00 89 1009.0
20260507174217 15 85 14.5 19.3 0.00 0.00 0.00 88 1009.2
20260507173214 15 96 17.7 25.7 0.00 0.00 0.00 88 1009.3
20260507172215 15 90 17.7 27.4 0.00 0.00 0.00 87 1009.3
20260507171215 15 78 20.9 24.1 0.00 0.00 0.00 88 1009.3
20260507170223 15 81 17.7 22.5 0.00 0.00 0.00 87 1009.1
20260507165216 15 79 24.1 29.0 0.00 0.00 0.00 1009.0
20260507164216 15 89 17.7 25.7 0.00 0.00 0.00 87 1009.2
20260507163217 15 74 16.1 19.3 0.00 0.00 0.00 87 1009.0
20260507162215 16 63 24.1 32.2 0.00 0.00 0.00 86 1009.0
20260507161235 15 90 20.9 25.7 0.00 0.00 0.00 87 1008.8
20260507160215 16 62 22.5 25.7 0.00 0.00 0.00 87 1008.8
20260507155216 16 60 24.1 29.0 0.00 0.00 0.00 88 1008.8
20260507154216 15 65 24.1 29.0 0.00 0.00 0.00 87 1008.7
20260507153217 15 69 19.3 22.5 0.00 0.00 0.00 87 1008.8
20260507152217 15 82 14.5 17.7 0.00 0.00 0.00 87 1008.9
20260507151215 15 88 19.3 27.4 0.00 0.00 0.00 88 1009.0
20260507150215 16 67 16.1 19.3 0.00 0.00 0.00 87 1009.1
20260507145216 16 68 22.5 27.4 0.00 0.00 0.00 87 1008.9
20260507144216 16 59 22.5 25.7 0.00 0.00 0.00 88 1008.8
20260507143224 16 63 27.4 32.2 0.00 0.00 0.00 86 1008.8
20260507142217 16 78 24.1 30.6 0.00 0.00 0.00 85 1009.0
20260507141217 16 70 22.5 32.2 0.00 0.00 0.00 85 1008.9
20260507140215 16 63 19.3 24.1 0.00 0.00 0.00 84 1009.1
20260507135215 16 59 24.1 30.6 0.00 0.00 0.00 85 1009.0
20260507134216 15 57 29.0 30.6 0.00 0.00 0.00 86 1009.1
20260507133216 15 61 25.7 29.0 0.00 0.00 0.00 86 1009.2
20260507132216 15 61 29.0 32.2 0.00 0.00 0.00 85 1009.1
20260507131217 15 59 25.7 30.6 0.00 0.00 0.00 87 1009.2
20260507130222 15 60 24.1 27.4 0.00 0.00 0.00 87 1009.3
20260507125215 15 66 22.5 27.4 0.00 0.00 0.00 86 1009.5
20260507124215 15 60 20.9 25.7 0.00 0.00 0.00 86 1009.8
20260507123216 15 68 22.5 25.7 0.00 0.00 0.00 86 1009.7
20260507122216 15 58 20.9 25.7 0.00 0.00 0.00 84 1010.0
20260507121216 16 59 19.3 24.1 0.00 0.00 0.00 84 1010.1
20260507120217 15 60 19.3 22.5 0.00 0.00 0.00 84 1010.3
20260507115215 15 58 20.9 27.4 0.00 0.00 0.00 84 1010.2
20260507114215 15 62 22.5 25.7 0.00 0.00 0.00 84 1010.2
20260507113215 15 69 22.5 25.7 0.00 0.00 0.00 84 1010.3
20260507112216 15 54 20.9 24.1 0.00 0.00 0.00 86 1010.1
20260507111216 15 66 22.5 27.4 0.00 0.00 0.00 86 1010.3
20260507110217 15 64 24.1 29.0 0.00 0.00 0.00 87 1010.5
20260507104215 15 64 20.9 22.5 0.00 0.00 0.00 87 1010.7
20260507103215 15 71 17.7 22.5 0.00 0.00 0.00 86 1010.7
20260507102215 15 62 20.9 24.1 0.00 0.00 0.00 86 1010.7
20260507101216 15 61 19.3 24.1 0.00 0.00 0.00 86 1010.7
20260507100216 15 76 17.7 22.5 0.00 0.00 0.00 86 1010.9
20260507095217 15 66 14.5 20.9 0.00 0.00 0.00 85 1010.8
20260507094217 15 84 11.3 14.5 0.00 0.00 0.00 86 1010.9
20260507093215 15 102 12.9 16.1 0.00 0.00 0.00 86 1010.8
20260507092215 15 102 11.3 12.9 0.00 0.00 0.00 87 1010.9